Flag for Canada Weather past 2 weeks in Qikiqtarjuaq, Nunavut, Canada

Now
30 °F

Light snow. Overcast.


Feels Like: 20 °F
Forecast: 18 / 28 °F
Wind: 14 mph from North

Location: Broughton Island Airport

Current Time: May 29, 2015 at 1:12:23 PM

Latest Report: May 29, 2015 at 12:00 PM


Visibility: 8 mi

Pressure: 29.62 "Hg

Humidity: 69%

Dew point: 21 °F

Location of QikiqtarjuaqLocation

Historic Weather in Qikiqtarjuaq — Graph

°F

Qikiqtarjuaq temperature yesterday

Maximum temperature yesterday: 28 °F (at 11:00 AM)
Minimum temperature yesterday: 23 °F (at 12:00 AM)
Average temperature yesterday: 25 °F

Past Weeks' High & Low Weather Summary

 TemperatureHumidityPressure
High30 °F (May 27, 10:00 AM)100% (May 19, 9:54 PM)30.00 "Hg (May 19, 9:54 PM)
Low0 °F (May 23, 3:03 AM)64% (May 18, 1:00 PM)29.12 "Hg (May 18, 7:00 AM)
Average21 °F86%29.74 "Hg
* Reported May 14 11:00 AM — May 29 11:00 AM, Qikiqtarjuaq, Weather by CustomWeather, © 2015

Note: Actual official high and low records may vary slightly from our data, if they occured in-between our weather recording intervals... More about our weather records

Advertising

Qikiqtarjuaq weather history for previous 24 hours

 ConditionsComfort  
Time TempWeatherWind HumidityBarometerVisibility
11:00 AM
Fri, May 29
28 °FLight snow. Overcast.16 mph69%29.61 "Hg8 mi
10:00 AM27 °FLight snow. Overcast.14 mph74%29.61 "Hg8 mi
9:00 AM27 °FLight snow. Overcast.12 mph74%29.61 "Hg8 mi
8:00 AM27 °FLight snow. Overcast.14 mph80%29.61 "Hg6 mi
7:46 AM27 °FLight snow. Mostly cloudy.15 mph80%29.61 "Hg6 mi
7:00 AM27 °FLight snow. Mostly cloudy.18 mph80%29.61 "Hg3 mi
6:46 AM27 °FLight snow. Mostly cloudy.20 mph80%29.61 "Hg5 mi
6:00 AM27 °FLight snow. Mostly cloudy.17 mph80%29.61 "Hg3 mi
5:00 AM25 °FLight snow. Mostly cloudy.26 mph86%29.61 "Hg2 mi
4:04 AM27 °FLight snow. Mostly cloudy.13 mph86%29.62 "Hg2 mi
3:03 AM27 °FLight snow. Overcast.13 mph80%29.62 "Hg6 mi
2:00 AM25 °FLight snow. Mostly cloudy.16 mph86%29.64 "Hg7 mi
1:57 AM25 °FLight snow. Mostly cloudy.18 mph86%29.64 "Hg6 mi
1:00 AM25 °FLight snow. Mostly cloudy.18 mph93%29.66 "Hg2 mi
12:57 AM25 °FLight snow. Mostly cloudy.18 mph93%29.66 "Hg2 mi
12:02 AM25 °FLight snow. Mostly cloudy.18 mph93%29.69 "Hg2 mi
11:00 PM
Thu, May 28
25 °FLight snow. Mostly cloudy.26 mph93%29.71 "Hg1 mi
10:00 PM25 °FLight snow. Mostly cloudy.20 mph93%29.74 "Hg1 mi
9:00 PM25 °FLight snow. Cloudy.14 mph93%29.76 "Hg6 mi
8:50 PM25 °FLight snow. Cloudy.15 mph93%29.76 "Hg5 mi
8:00 PM25 °FLight snow. Mostly cloudy.18 mph93%29.78 "Hg5 mi
7:00 PM27 °FLight snow. Cloudy.20 mph86%29.80 "Hg9 mi
6:00 PM27 °FSnow flurries. Partly sunny.18 mph86%29.82 "Hg8 mi
5:00 PM28 °FPartly sunny.16 mph80%29.85 "Hg10 mi
4:00 PM27 °FSnow flurries. Partly sunny.16 mph86%29.87 "Hg10 mi
3:00 PM28 °FLight snow. Partly sunny.16 mph80%29.89 "Hg10 mi
2:00 PM28 °FPartly sunny.13 mph80%29.91 "Hg10 mi
1:00 PM28 °FLight snow. Partly sunny.3 mph80%29.93 "Hg6 mi
Weather by CustomWeather, © 2015

See weather overviewHow to use our weather pages